Archiv

Tageswerte

Alle gespeicherten Messwerte deiner Wetterstation.

Ausgewählter Tag08.01.2024
← Vortag Nächster Tag → Heute
Messpunkte288
Max Temperatur-4,4 °C
Min Temperatur-10,6 °C
Ø Temperatur-7,9 °C
Regen0,0 mm
Stärkste Böe17,2 km/h

Messwerte vom 08.01.2024

288 gespeicherte Messwerte

Diagramm anzeigen
ZeitTemperaturFeuchteDruckWindBöeRichtungRegenUVHelligkeit
23:59-10,6 °C81 %1.024,0 hPa0,0 km/h0,0 km/h112°0,0 mm
23:54-10,5 °C80 %1.024,0 hPa0,2 km/h2,1 km/h112°0,0 mm
23:49-10,5 °C80 %1.024,0 hPa0,9 km/h2,7 km/h112°0,0 mm
23:44-10,4 °C80 %1.024,0 hPa1,1 km/h3,9 km/h91°0,0 mm
23:39-10,3 °C79 %1.024,0 hPa1,5 km/h5,0 km/h109°0,0 mm
23:34-10,3 °C79 %1.024,0 hPa1,7 km/h3,9 km/h95°0,0 mm
23:29-10,3 °C78 %1.024,0 hPa2,0 km/h3,9 km/h99°0,0 mm
23:24-10,2 °C78 %1.024,0 hPa3,1 km/h8,5 km/h104°0,0 mm
23:19-10,2 °C78 %1.024,0 hPa2,9 km/h7,4 km/h104°0,0 mm
23:14-10,2 °C78 %1.024,0 hPa2,0 km/h8,9 km/h105°0,0 mm
23:09-10,1 °C78 %1.024,0 hPa1,6 km/h3,9 km/h108°0,0 mm
23:04-10,1 °C77 %1.024,0 hPa2,6 km/h11,4 km/h104°0,0 mm
22:59-10,0 °C77 %1.024,0 hPa3,3 km/h7,9 km/h103°0,0 mm
22:54-10,0 °C77 %1.024,0 hPa2,2 km/h6,1 km/h98°0,0 mm
22:49-9,9 °C77 %1.024,0 hPa2,2 km/h7,1 km/h102°0,0 mm
22:44-9,9 °C76 %1.024,0 hPa2,8 km/h7,9 km/h107°0,0 mm
22:39-9,8 °C76 %1.024,0 hPa2,0 km/h7,1 km/h111°0,0 mm
22:34-9,8 °C75 %1.024,0 hPa3,7 km/h9,3 km/h112°0,0 mm
22:29-9,8 °C76 %1.024,0 hPa3,4 km/h8,5 km/h107°0,0 mm
22:24-9,8 °C76 %1.024,0 hPa2,0 km/h6,1 km/h105°0,0 mm
22:19-9,7 °C76 %1.024,0 hPa1,6 km/h3,9 km/h99°0,0 mm
22:14-9,7 °C75 %1.024,0 hPa2,5 km/h9,3 km/h111°0,0 mm
22:09-9,7 °C75 %1.024,0 hPa2,9 km/h7,9 km/h84°0,0 mm
22:04-9,6 °C75 %1.024,0 hPa3,3 km/h6,8 km/h110°0,0 mm
21:59-9,6 °C75 %1.024,0 hPa1,3 km/h5,3 km/h97°0,0 mm
21:54-9,5 °C75 %1.024,0 hPa2,2 km/h10,8 km/h216°0,0 mm
21:49-9,5 °C75 %1.024,0 hPa1,8 km/h6,4 km/h348°0,0 mm
21:44-9,5 °C74 %1.024,0 hPa3,0 km/h10,8 km/h218°0,0 mm
21:39-9,5 °C74 %1.024,0 hPa2,4 km/h6,4 km/h171°0,0 mm
21:34-9,4 °C74 %1.024,0 hPa2,1 km/h6,8 km/h82°0,0 mm
21:29-9,4 °C74 %1.024,0 hPa2,7 km/h9,3 km/h340°0,0 mm
21:24-9,5 °C74 %1.024,0 hPa2,3 km/h5,0 km/h353°0,0 mm
21:19-9,5 °C75 %1.024,0 hPa1,7 km/h3,9 km/h93°0,0 mm
21:14-9,5 °C75 %1.024,0 hPa1,1 km/h7,4 km/h97°0,0 mm
21:09-9,4 °C76 %1.024,0 hPa1,0 km/h3,9 km/h82°0,0 mm
21:04-9,4 °C76 %1.024,0 hPa1,3 km/h3,5 km/h89°0,0 mm
20:59-9,4 °C76 %1.024,0 hPa1,5 km/h6,8 km/h87°0,0 mm
20:54-9,4 °C77 %1.024,0 hPa2,1 km/h10,0 km/h85°0,0 mm
20:49-9,4 °C77 %1.024,0 hPa1,4 km/h5,6 km/h87°0,0 mm
20:44-9,4 °C77 %1.024,0 hPa1,1 km/h4,2 km/h102°0,0 mm
20:39-9,3 °C77 %1.024,0 hPa1,5 km/h3,5 km/h115°0,0 mm
20:34-9,3 °C78 %1.024,0 hPa0,7 km/h2,7 km/h114°0,0 mm
20:29-9,2 °C77 %1.024,0 hPa1,5 km/h4,7 km/h86°0,0 mm
20:24-9,2 °C77 %1.024,0 hPa2,1 km/h3,9 km/h94°0,0 mm
20:19-9,2 °C78 %1.024,0 hPa2,2 km/h4,7 km/h87°0,0 mm
20:14-9,2 °C78 %1.024,0 hPa1,3 km/h5,3 km/h107°0,0 mm
20:09-9,2 °C78 %1.024,0 hPa1,6 km/h3,5 km/h102°0,0 mm
20:04-9,2 °C79 %1.024,0 hPa2,4 km/h5,3 km/h91°0,0 mm
19:59-9,4 °C79 %1.023,0 hPa1,8 km/h3,9 km/h93°0,0 mm
19:54-9,4 °C79 %1.023,0 hPa2,1 km/h5,3 km/h106°0,0 mm
19:49-9,4 °C81 %1.023,0 hPa1,9 km/h5,6 km/h112°0,0 mm
19:44-9,4 °C80 %1.023,0 hPa0,3 km/h2,7 km/h112°0,0 mm
19:39-9,3 °C80 %1.023,0 hPa0,2 km/h2,1 km/h97°0,0 mm
19:34-9,2 °C79 %1.023,0 hPa0,9 km/h3,5 km/h105°0,0 mm
19:29-9,2 °C79 %1.023,0 hPa0,9 km/h6,4 km/h102°0,0 mm
19:24-9,2 °C79 %1.023,0 hPa1,2 km/h3,5 km/h112°0,0 mm
19:19-9,2 °C79 %1.023,0 hPa2,7 km/h6,4 km/h104°0,0 mm
19:14-9,3 °C79 %1.023,0 hPa1,6 km/h3,5 km/h107°0,0 mm
19:09-9,4 °C79 %1.023,0 hPa2,1 km/h3,9 km/h98°0,0 mm
19:04-9,4 °C80 %1.023,0 hPa1,3 km/h4,7 km/h112°0,0 mm
18:59-9,4 °C81 %1.023,0 hPa1,8 km/h3,9 km/h103°0,0 mm
18:54-9,4 °C80 %1.023,0 hPa0,9 km/h3,5 km/h112°0,0 mm
18:49-9,2 °C80 %1.023,0 hPa1,4 km/h3,5 km/h92°0,0 mm
18:44-9,1 °C79 %1.023,0 hPa0,4 km/h2,4 km/h112°0,0 mm
18:39-9,1 °C79 %1.023,0 hPa2,3 km/h3,5 km/h106°0,0 mm
18:34-9,0 °C79 %1.023,0 hPa3,3 km/h7,9 km/h110°0,0 mm
18:29-9,0 °C79 %1.023,0 hPa2,9 km/h5,0 km/h105°0,0 mm
18:24-9,0 °C79 %1.023,0 hPa2,9 km/h5,6 km/h100°0,0 mm
18:19-8,9 °C79 %1.023,0 hPa3,0 km/h5,3 km/h103°0,0 mm
18:14-8,8 °C79 %1.023,0 hPa4,1 km/h9,3 km/h107°0,0 mm
18:09-8,8 °C78 %1.023,0 hPa4,5 km/h9,3 km/h104°0,0 mm
18:04-8,8 °C78 %1.023,0 hPa3,8 km/h10,3 km/h105°0,0 mm
17:59-8,7 °C78 %1.023,0 hPa2,6 km/h5,3 km/h85°0,0 mm
17:54-8,7 °C77 %1.023,0 hPa4,1 km/h11,1 km/h93°0,0 mm
17:49-8,7 °C77 %1.023,0 hPa3,0 km/h8,9 km/h82°0,0 mm
17:44-8,7 °C78 %1.023,0 hPa1,9 km/h3,9 km/h102°0,0 mm
17:39-8,7 °C78 %1.023,0 hPa2,2 km/h5,3 km/h101°0,0 mm
17:34-8,7 °C77 %1.023,0 hPa2,9 km/h6,1 km/h42°0,0 mm
17:29-8,7 °C77 %1.022,0 hPa2,0 km/h5,6 km/h76°0,0 mm
17:24-8,7 °C77 %1.022,0 hPa1,9 km/h6,8 km/h98°0,0 mm
17:19-8,7 °C77 %1.022,0 hPa2,0 km/h6,1 km/h34°0,0 mm
17:14-8,6 °C77 %1.022,0 hPa0,8 km/h2,7 km/h111°0,0 mm
17:09-8,6 °C76 %1.022,0 hPa1,2 km/h5,3 km/h308°0,0 mm
17:04-8,5 °C77 %1.022,0 hPa2,0 km/h6,4 km/h205°0,0 mm
16:59-8,5 °C76 %1.022,0 hPa3,4 km/h8,9 km/h132°0,0 mm
16:54-8,5 °C76 %1.022,0 hPa2,1 km/h7,4 km/h279°0,0 mm
16:49-8,5 °C76 %1.022,0 hPa1,5 km/h3,9 km/h275°0,0 mm
16:44-8,5 °C76 %1.022,0 hPa2,1 km/h6,4 km/h236°0,0 mm
16:39-8,4 °C76 %1.022,0 hPa1,2 km/h5,0 km/h319°0,0 mm
16:34-8,4 °C75 %1.022,0 hPa1,5 km/h3,5 km/h255°0,0 mm
16:29-8,4 °C74 %1.022,0 hPa1,5 km/h3,9 km/h281°0,0 mm
16:24-8,3 °C74 %1.022,0 hPa1,8 km/h3,9 km/h272°0,0 mm
16:19-8,3 °C73 %1.022,0 hPa2,5 km/h5,3 km/h219°0,0 mm
16:14-8,2 °C73 %1.021,0 hPa1,9 km/h5,3 km/h282°0,0 mm
16:09-8,2 °C72 %1.021,0 hPa2,0 km/h5,0 km/h242°0,0 mm
16:04-8,1 °C72 %1.021,0 hPa2,4 km/h5,3 km/h0,0 mm
15:59-8,1 °C72 %1.021,0 hPa0,7 km/h2,7 km/h92°0,0 mm
15:54-8,0 °C71 %1.021,0 hPa1,7 km/h3,5 km/h354°0,0 mm
15:49-8,0 °C71 %1.021,0 hPa3,4 km/h10,8 km/h345°0,0 mm
15:44-8,0 °C71 %1.021,0 hPa2,1 km/h6,8 km/h293°0,0 mm
15:39-7,9 °C71 %1.021,0 hPa2,1 km/h5,3 km/h296°0,0 mm
15:34-7,9 °C71 %1.021,0 hPa2,4 km/h6,4 km/h292°0,0 mm
15:29-7,8 °C72 %1.021,0 hPa2,1 km/h7,1 km/h275°0,0 mm
15:24-7,7 °C72 %1.021,0 hPa2,6 km/h5,3 km/h297°0,0 mm
15:19-7,5 °C72 %1.021,0 hPa2,7 km/h9,3 km/h307°0,0 mm
15:14-7,2 °C71 %1.021,0 hPa2,0 km/h6,8 km/h284°0,0 mm
15:09-7,0 °C70 %1.021,0 hPa2,7 km/h8,2 km/h304°0,0 mm
15:04-6,9 °C68 %1.021,0 hPa1,2 km/h3,9 km/h286°0,0 mm
14:59-6,8 °C68 %1.021,0 hPa1,7 km/h3,2 km/h341°0,0 mm
14:54-6,7 °C68 %1.021,0 hPa2,5 km/h9,3 km/h304°0,0 mm
14:49-6,7 °C67 %1.021,0 hPa2,2 km/h6,8 km/h302°0,0 mm
14:44-6,7 °C67 %1.021,0 hPa2,4 km/h7,9 km/h258°0,0 mm
14:39-6,5 °C67 %1.021,0 hPa2,2 km/h7,9 km/h273°0,0 mm
14:34-6,5 °C67 %1.021,0 hPa2,4 km/h7,4 km/h0,0 mm
14:29-6,6 °C68 %1.020,0 hPa1,1 km/h3,2 km/h285°0,0 mm
14:24-6,9 °C69 %1.020,0 hPa1,6 km/h3,2 km/h293°0,0 mm
14:19-7,0 °C69 %1.020,0 hPa1,3 km/h3,9 km/h217°0,0 mm
14:14-7,0 °C71 %1.020,0 hPa2,6 km/h6,4 km/h324°0,0 mm
14:09-6,9 °C70 %1.020,0 hPa3,4 km/h9,3 km/h341°0,0 mm
14:04-7,0 °C69 %1.020,0 hPa2,5 km/h5,6 km/h267°0,0 mm
13:59-7,1 °C69 %1.020,0 hPa2,2 km/h3,5 km/h355°0,0 mm
13:54-7,3 °C71 %1.020,0 hPa2,5 km/h5,3 km/h293°0,0 mm
13:49-7,5 °C71 %1.020,0 hPa2,5 km/h5,6 km/h301°0,0 mm
13:44-7,7 °C73 %1.020,0 hPa2,4 km/h7,4 km/h346°0,0 mm
13:39-7,9 °C74 %1.020,0 hPa2,4 km/h6,1 km/h313°0,0 mm
13:34-7,8 °C76 %1.020,0 hPa2,1 km/h7,4 km/h284°0,0 mm
13:29-7,7 °C76 %1.020,0 hPa2,3 km/h5,3 km/h302°0,0 mm
13:24-7,5 °C76 %1.020,0 hPa3,0 km/h8,5 km/h306°0,0 mm
13:19-7,5 °C76 %1.020,0 hPa2,7 km/h5,0 km/h312°0,0 mm
13:14-7,7 °C75 %1.020,0 hPa3,2 km/h7,4 km/h308°0,0 mm
13:09-8,1 °C74 %1.020,0 hPa2,6 km/h5,3 km/h34°0,0 mm
13:04-8,3 °C76 %1.020,0 hPa1,7 km/h7,9 km/h95°0,0 mm
12:59-8,3 °C77 %1.020,0 hPa2,7 km/h8,9 km/h119°0,0 mm
12:54-8,4 °C76 %1.020,0 hPa2,0 km/h5,3 km/h101°0,0 mm
12:49-8,5 °C76 %1.020,0 hPa2,9 km/h8,5 km/h358°0,0 mm
12:44-8,7 °C77 %1.020,0 hPa2,5 km/h6,4 km/h309°0,0 mm
12:39-8,7 °C78 %1.020,0 hPa2,3 km/h6,8 km/h283°0,0 mm
12:34-8,6 °C78 %1.020,0 hPa2,3 km/h5,3 km/h273°0,0 mm
12:29-8,5 °C78 %1.020,0 hPa2,8 km/h6,8 km/h97°0,0 mm
12:24-8,4 °C78 %1.020,0 hPa2,6 km/h7,4 km/h312°0,0 mm
12:19-8,2 °C78 %1.020,0 hPa1,6 km/h3,5 km/h331°0,0 mm
12:14-8,0 °C78 %1.020,0 hPa2,4 km/h6,1 km/h274°0,0 mm
12:09-8,2 °C77 %1.020,0 hPa2,6 km/h8,5 km/h304°0,0 mm
12:04-8,4 °C78 %1.020,0 hPa1,8 km/h5,0 km/h107°0,0 mm
11:59-8,6 °C78 %1.020,0 hPa1,7 km/h5,3 km/h100°0,0 mm
11:54-8,6 °C78 %1.020,0 hPa2,4 km/h5,3 km/h309°0,0 mm
11:49-8,6 °C78 %1.020,0 hPa2,2 km/h5,0 km/h335°0,0 mm
11:44-8,6 °C78 %1.020,0 hPa3,0 km/h6,8 km/h60°0,0 mm
11:39-8,6 °C78 %1.020,0 hPa2,0 km/h4,7 km/h93°0,0 mm
11:34-8,7 °C78 %1.020,0 hPa2,5 km/h7,9 km/h254°0,0 mm
11:29-8,7 °C78 %1.020,0 hPa2,2 km/h6,8 km/h96°0,0 mm
11:24-8,8 °C77 %1.020,0 hPa1,9 km/h3,9 km/h48°0,0 mm
11:19-8,9 °C78 %1.020,0 hPa1,8 km/h6,4 km/h81°0,0 mm
11:14-9,1 °C78 %1.020,0 hPa1,8 km/h6,4 km/h90°0,0 mm
11:09-9,3 °C78 %1.020,0 hPa3,3 km/h10,3 km/h79°0,0 mm
11:04-9,3 °C79 %1.020,0 hPa1,9 km/h6,4 km/h237°0,0 mm
10:59-9,3 °C78 %1.020,0 hPa5,1 km/h11,1 km/h67°0,0 mm
10:54-9,2 °C78 %1.020,0 hPa3,9 km/h7,4 km/h112°0,0 mm
10:49-9,3 °C78 %1.020,0 hPa3,3 km/h10,8 km/h97°0,0 mm
10:44-9,3 °C79 %1.020,0 hPa1,5 km/h3,2 km/h91°0,0 mm
10:39-9,3 °C78 %1.020,0 hPa2,4 km/h11,1 km/h142°0,0 mm
10:34-9,3 °C78 %1.020,0 hPa2,7 km/h6,8 km/h84°0,0 mm
10:29-9,4 °C79 %1.020,0 hPa1,9 km/h6,4 km/h297°0,0 mm
10:24-9,4 °C80 %1.020,0 hPa2,5 km/h6,1 km/h87°0,0 mm
10:19-9,4 °C79 %1.020,0 hPa2,2 km/h6,4 km/h308°0,0 mm
10:14-9,4 °C80 %1.019,0 hPa1,2 km/h3,5 km/h334°0,0 mm
10:09-9,4 °C80 %1.019,0 hPa2,0 km/h5,3 km/h321°0,0 mm
10:04-9,4 °C80 %1.019,0 hPa1,7 km/h3,5 km/h263°0,0 mm
09:59-9,3 °C80 %1.019,0 hPa2,1 km/h5,0 km/h247°0,0 mm
09:54-9,2 °C81 %1.019,0 hPa2,1 km/h5,3 km/h319°0,0 mm
09:49-9,1 °C81 %1.019,0 hPa2,0 km/h5,6 km/h268°0,0 mm
09:44-9,1 °C82 %1.019,0 hPa3,7 km/h7,4 km/h0,0 mm
09:39-9,1 °C82 %1.019,0 hPa2,9 km/h7,4 km/h30°0,0 mm
09:34-9,0 °C82 %1.019,0 hPa2,7 km/h8,2 km/h45°0,0 mm
09:29-8,9 °C82 %1.019,0 hPa3,5 km/h9,7 km/h41°0,0 mm
09:24-8,9 °C81 %1.019,0 hPa1,9 km/h3,5 km/h47°0,0 mm
09:19-8,9 °C81 %1.019,0 hPa1,4 km/h5,6 km/h103°0,0 mm
09:14-8,9 °C81 %1.019,0 hPa1,9 km/h3,5 km/h22°0,0 mm
09:09-9,0 °C80 %1.019,0 hPa1,7 km/h3,2 km/h334°0,0 mm
09:04-8,9 °C80 %1.019,0 hPa1,9 km/h8,5 km/h133°0,0 mm
08:59-8,9 °C80 %1.018,0 hPa2,5 km/h7,4 km/h88°0,0 mm
08:54-9,0 °C79 %1.018,0 hPa1,4 km/h5,3 km/h314°0,0 mm
08:49-9,1 °C80 %1.018,0 hPa1,3 km/h3,5 km/h0,0 mm
08:44-9,1 °C80 %1.018,0 hPa2,5 km/h8,5 km/h81°0,0 mm
08:39-9,1 °C80 %1.018,0 hPa3,5 km/h9,7 km/h242°0,0 mm
08:34-9,0 °C80 %1.018,0 hPa3,4 km/h7,4 km/h93°0,0 mm
08:29-9,0 °C80 %1.018,0 hPa5,2 km/h9,3 km/h95°0,0 mm
08:24-8,9 °C81 %1.018,0 hPa3,2 km/h8,5 km/h47°0,0 mm
08:19-8,8 °C81 %1.018,0 hPa3,8 km/h8,9 km/h13°0,0 mm
08:14-8,8 °C81 %1.018,0 hPa2,8 km/h8,5 km/h87°0,0 mm
08:09-8,7 °C81 %1.018,0 hPa1,9 km/h6,8 km/h0,0 mm
08:04-8,7 °C82 %1.018,0 hPa1,5 km/h8,9 km/h279°0,0 mm
07:59-8,7 °C82 %1.018,0 hPa2,7 km/h5,6 km/h26°0,0 mm
07:54-8,6 °C81 %1.018,0 hPa2,3 km/h5,3 km/h80°0,0 mm
07:49-8,6 °C81 %1.018,0 hPa1,9 km/h6,1 km/h268°0,0 mm
07:44-8,6 °C81 %1.016,9 hPa0,7 km/h3,2 km/h33°0,0 mm
07:39-8,6 °C81 %1.016,9 hPa2,6 km/h6,4 km/h277°0,0 mm
07:34-8,6 °C81 %1.016,9 hPa2,4 km/h5,6 km/h271°0,0 mm
07:29-8,6 °C81 %1.018,0 hPa2,8 km/h8,5 km/h67°0,0 mm
07:24-8,6 °C81 %1.018,0 hPa1,6 km/h6,1 km/h106°0,0 mm
07:19-8,6 °C81 %1.018,0 hPa2,1 km/h5,0 km/h296°0,0 mm
07:14-8,5 °C81 %1.016,9 hPa2,9 km/h7,1 km/h206°0,0 mm
07:09-8,3 °C81 %1.016,9 hPa2,9 km/h6,4 km/h268°0,0 mm
07:04-8,2 °C82 %1.016,9 hPa3,0 km/h10,8 km/h267°0,0 mm
06:59-8,2 °C82 %1.016,9 hPa1,9 km/h6,4 km/h297°0,0 mm
06:54-8,2 °C82 %1.016,9 hPa1,8 km/h6,4 km/h141°0,0 mm
06:49-8,2 °C82 %1.016,9 hPa1,5 km/h5,3 km/h302°0,0 mm
06:44-8,1 °C82 %1.016,9 hPa1,6 km/h3,9 km/h291°0,0 mm
06:39-8,1 °C82 %1.016,9 hPa2,0 km/h8,2 km/h319°0,0 mm
06:34-8,0 °C82 %1.016,9 hPa0,7 km/h2,4 km/h31°0,0 mm
06:29-8,0 °C82 %1.016,9 hPa2,0 km/h5,3 km/h305°0,0 mm
06:24-7,9 °C82 %1.016,9 hPa3,1 km/h7,9 km/h286°0,0 mm
06:19-7,9 °C82 %1.016,9 hPa3,2 km/h14,3 km/h333°0,0 mm
06:14-7,8 °C82 %1.016,9 hPa1,8 km/h6,8 km/h129°0,0 mm
06:09-7,8 °C82 %1.016,9 hPa2,8 km/h8,5 km/h307°0,0 mm
06:04-7,7 °C81 %1.016,9 hPa3,5 km/h8,9 km/h294°0,0 mm
05:59-7,6 °C81 %1.015,9 hPa3,2 km/h8,2 km/h294°0,0 mm
05:54-7,5 °C81 %1.015,9 hPa4,2 km/h11,4 km/h21°0,0 mm
05:49-7,4 °C82 %1.015,9 hPa3,3 km/h8,5 km/h282°0,0 mm
05:44-7,4 °C82 %1.015,9 hPa4,2 km/h9,3 km/h305°0,0 mm
05:39-7,3 °C82 %1.015,9 hPa3,5 km/h8,9 km/h312°0,0 mm
05:34-7,1 °C82 %1.015,9 hPa2,4 km/h9,3 km/h318°0,0 mm
05:29-7,0 °C82 %1.015,9 hPa3,9 km/h11,4 km/h288°0,0 mm
05:24-6,8 °C81 %1.015,9 hPa3,2 km/h8,5 km/h320°0,0 mm
05:19-6,7 °C81 %1.015,9 hPa3,0 km/h6,8 km/h289°0,0 mm
05:14-6,5 °C82 %1.015,9 hPa1,9 km/h5,6 km/h333°0,0 mm
05:09-6,4 °C82 %1.015,9 hPa3,1 km/h8,5 km/h319°0,0 mm
05:04-6,3 °C82 %1.015,9 hPa2,4 km/h6,8 km/h306°0,0 mm
04:59-6,2 °C82 %1.015,9 hPa2,9 km/h8,2 km/h281°0,0 mm
04:54-6,2 °C82 %1.015,9 hPa2,8 km/h8,9 km/h313°0,0 mm
04:49-6,1 °C82 %1.015,9 hPa3,0 km/h8,9 km/h33°0,0 mm
04:44-6,1 °C83 %1.014,9 hPa2,5 km/h7,4 km/h283°0,0 mm
04:39-6,0 °C83 %1.014,9 hPa2,3 km/h7,4 km/h310°0,0 mm
04:34-6,0 °C83 %1.014,9 hPa2,7 km/h8,2 km/h320°0,0 mm
04:29-5,9 °C83 %1.015,9 hPa2,0 km/h3,9 km/h300°0,0 mm
04:24-5,9 °C83 %1.015,9 hPa2,5 km/h8,9 km/h263°0,0 mm
04:19-5,8 °C83 %1.015,9 hPa3,2 km/h8,5 km/h297°0,0 mm
04:14-5,7 °C83 %1.014,9 hPa1,6 km/h4,7 km/h289°0,0 mm
04:09-5,7 °C83 %1.014,9 hPa1,4 km/h3,5 km/h94°0,0 mm
04:04-5,7 °C83 %1.014,9 hPa1,6 km/h3,5 km/h296°0,0 mm
03:59-5,6 °C83 %1.014,9 hPa2,0 km/h7,9 km/h307°0,0 mm
03:54-5,6 °C83 %1.014,9 hPa2,0 km/h4,7 km/h304°0,0 mm
03:49-5,5 °C83 %1.014,9 hPa1,3 km/h6,4 km/h262°0,0 mm
03:44-5,5 °C82 %1.014,9 hPa1,4 km/h3,9 km/h284°0,0 mm
03:39-5,4 °C82 %1.014,9 hPa2,9 km/h6,4 km/h289°0,0 mm
03:34-5,4 °C82 %1.014,9 hPa1,1 km/h6,8 km/h304°0,0 mm
03:29-5,3 °C81 %1.014,9 hPa1,9 km/h8,5 km/h308°0,0 mm
03:24-5,3 °C81 %1.014,9 hPa2,3 km/h5,6 km/h311°0,0 mm
03:19-5,3 °C80 %1.014,9 hPa4,1 km/h10,8 km/h313°0,0 mm
03:14-5,3 °C78 %1.014,9 hPa1,7 km/h5,0 km/h299°0,0 mm
03:09-5,2 °C77 %1.014,9 hPa1,6 km/h6,1 km/h292°0,0 mm
03:04-5,2 °C75 %1.014,9 hPa2,0 km/h7,9 km/h294°0,0 mm
02:59-5,1 °C74 %1.014,9 hPa2,3 km/h6,4 km/h336°0,0 mm
02:54-5,1 °C73 %1.014,9 hPa1,8 km/h5,3 km/h269°0,0 mm
02:49-5,1 °C72 %1.014,9 hPa1,3 km/h3,5 km/h310°0,0 mm
02:44-5,0 °C72 %1.014,9 hPa1,3 km/h5,0 km/h283°0,0 mm
02:39-5,0 °C71 %1.014,9 hPa3,8 km/h8,9 km/h312°0,0 mm
02:34-4,9 °C71 %1.014,9 hPa3,0 km/h8,5 km/h303°0,0 mm
02:29-4,8 °C72 %1.014,9 hPa4,0 km/h7,9 km/h317°0,0 mm
02:24-4,8 °C73 %1.014,9 hPa3,7 km/h7,4 km/h320°0,0 mm
02:19-4,8 °C72 %1.014,9 hPa1,6 km/h5,3 km/h302°0,0 mm
02:14-4,7 °C73 %1.014,9 hPa2,0 km/h8,5 km/h306°0,0 mm
02:09-4,7 °C72 %1.014,9 hPa4,2 km/h10,8 km/h317°0,0 mm
02:04-4,6 °C73 %1.014,9 hPa3,3 km/h8,9 km/h317°0,0 mm
01:59-4,5 °C73 %1.014,9 hPa4,7 km/h17,2 km/h302°0,0 mm
01:54-4,5 °C73 %1.014,9 hPa5,9 km/h13,7 km/h320°0,0 mm
01:49-4,4 °C76 %1.014,9 hPa2,4 km/h8,9 km/h311°0,0 mm
01:44-4,4 °C78 %1.014,9 hPa3,3 km/h9,3 km/h305°0,0 mm
01:39-4,4 °C80 %1.014,9 hPa1,2 km/h3,9 km/h319°0,0 mm
01:34-4,5 °C80 %1.014,9 hPa1,2 km/h2,7 km/h315°0,0 mm
01:29-4,5 °C80 %1.014,9 hPa1,0 km/h3,2 km/h299°0,0 mm
01:24-4,4 °C80 %1.014,9 hPa0,6 km/h2,4 km/h292°0,0 mm
01:19-4,4 °C79 %1.014,9 hPa0,7 km/h2,7 km/h292°0,0 mm
01:14-4,5 °C79 %1.014,9 hPa0,9 km/h5,0 km/h292°0,0 mm
01:09-4,5 °C79 %1.014,9 hPa0,6 km/h3,5 km/h292°0,0 mm
01:04-4,5 °C79 %1.014,9 hPa1,2 km/h7,9 km/h300°0,0 mm
00:59-4,5 °C79 %1.014,9 hPa0,8 km/h6,4 km/h276°0,0 mm
00:54-4,5 °C79 %1.014,9 hPa0,6 km/h3,2 km/h292°0,0 mm
00:49-4,5 °C79 %1.014,9 hPa0,6 km/h2,4 km/h292°0,0 mm
00:44-4,5 °C78 %1.014,9 hPa1,1 km/h2,7 km/h292°0,0 mm
00:39-4,5 °C78 %1.014,9 hPa0,6 km/h3,9 km/h342°0,0 mm
00:34-4,5 °C79 %1.014,9 hPa1,0 km/h2,7 km/h310°0,0 mm
00:29-4,5 °C78 %1.014,9 hPa1,2 km/h5,0 km/h292°0,0 mm
00:24-4,6 °C78 %1.014,9 hPa0,9 km/h3,5 km/h292°0,0 mm
00:19-4,6 °C78 %1.014,9 hPa1,1 km/h3,2 km/h268°0,0 mm
00:14-4,6 °C78 %1.014,9 hPa0,8 km/h2,7 km/h312°0,0 mm
00:09-4,6 °C77 %1.014,9 hPa1,1 km/h2,7 km/h328°0,0 mm
00:04-4,6 °C77 %1.014,9 hPa3,2 km/h6,4 km/h294°0,0 mm